Погода Фурманово

Погода Фурманово : погода сейчас, прогноз погоды и архив. Всё, что Вы хотите узнать о погоде Фурманово!

Поиск расширенной информации на нашем сайте:

Другие новости

Новости СМИ2

Главная страница сайта

Новости сайта

03.07.2017

Напоминаем, что на нашем специализированном сайте Метеоцентр.Азия вы можете получить высокодетализированные автоматические прогнозы погоды по пунктам России, СНГ и мира в авиационном формате (включающие направление и скорость ветра, видимость, явления погоды, количество и форму облачности, нижнюю и верхнюю границу облачности).


Погода Фурманово - сегодня

Время (UTC), дата Ветер
(°,м/с) 
Видим.   Явления Облачность Т
(°С)
Тd
(°С)
f(%) Тe
(°С)
Pmin
(гПа)
dP
(гПа)
Po
(мм)
O2
(г/м3)
Тmin Tmax R s Состояние
почвы
21 23.05.18 090 (В) н/о    ясно 
+18.6 +6.7 46 +19  1021.5  -1  765  288           
00 24.05.18 090 (В) н/о    3/0 верхняя 
[Ci fib]
+15.1 +7.6 61 +16  1020.9  -0.6  765  291           
03 24.05.18 140 (ЮВ) 20000 м    ясно 
+20.5 +7.9 44 +21  1020  -0.8  764  285           
06 24.05.18 140 (ЮВ) 20000 м    1/0 верхняя 
[Ci fib]
+30.2 +7.8 25 +30  1018.8  -1.2  763  276  +14.1         
09 24.05.18 160 (Ю) 20000 м  пыльный позёмок  ясно 
+34 +1.1 12 +34  1016.9  -1.9  762  273           
12 24.05.18 160 (Ю) 20000 м  пыльный позёмок  ясно 
+34.7 +2.9 14 +35  1014.7  -2.2  760  271           
15 24.05.18 140 (ЮВ) 20000 м    ясно 
+31.5 +7.9 23 +32  1013.2  -1.5  759  273    +35.2       
18 24.05.18 140 (ЮВ) н/о    ясно 
+22.5 +8.2 40 +23  1013.2  759  281    +35.2       
21 24.05.18 140 (ЮВ) н/о    ясно 
+20.9 +4.4 34 +21  1012.5  -0.7  759  283           
00 25.05.18 140 (ЮВ) н/о    ясно 
+15.9 +5.7 51 +16  1011.7  -0.9  758  288           
03 25.05.18 140 (ЮВ) 20000 м    3/0 верхняя 
[Ci fib]
+22.2 +6.7 37 +22  1010.9  -0.7  758  281           
06 25.05.18 140 (ЮВ) 20000 м    4/0 верхняя 
[Ci fib]
+29 +5.3 22 +29  1010.2  -0.7  757  275  +15.2         
09 25.05.18 200 (Ю) 20000 м    5/0 верхняя 
[Ci fib]
+33.7 +2.6 14 +34  1008.9  -1.3  756  271           
12 25.05.18 250 (З) 20000 м    8/0 средняя, верхняя 
[Ac cast|Ci ing]
+35.1 -1.1 10 +35  1007.3  -1.6  755  270           
15 25.05.18 230 (ЮЗ) 20000 м    6/0 средняя, верхняя 
[Ac cast|Ci ing]
+32.6 +2.8 15 +33  1006  -1.3  754  271    +35.5       
18 25.05.18 020 (С) 10{18}  н/о  пыльная буря  6/0 средняя, верхняя 
[Ac lent|Cs]
+19.8 +11.2 58 +23  1009.3  3.3  756  282    +35.5       
21 25.05.18 020 (С) 9{17}  н/о    8/4 600 м кучево-дожд., средняя, верхняя 
[Cb cap|Ac lent|Cs]
+12.1 +5.4 64 +10  1013.4  759  292           
00 26.05.18 050 (СВ) 6{18}  н/о    9/5 600 м кучево-дожд., средняя, верхняя 
[Cb cap|Ac cast|Cs]
+10.3 +6.2 76 +9  1015.3  1.9  761  294           
03 26.05.18 020 (С) 10{15}  20000 м  пыльный позёмок  3/3 600 м кучево-дожд., средняя 
[Cb cap|Ac cast]
+10.1 +1.7 56 +8  1017  1.7  762  296           
06 26.05.18 020 (С) 12{18}  20000 м  пыльный позёмок  3/0 средняя 
[Ac cast]
+14.2 -1.8 33 +12  1018.5  1.5  763  293  +9.3         
09 26.05.18 070 (В) 15-18  1000 м  пыльная буря  ясно 
+17.6 -4.8 21 +16  1020.2  1.7  764  290           
12 26.05.18 360 (С) 10  10 км  пыльный позёмок  ясно 
+18.2 +0.2 30 +18  1020.5  1.5  765  289           
15 26.05.18 020 (С) 20000 м    ясно 
+15.7 -2.7 28 +15  1023.4  1.7  767  292    +18.1       
18 26.05.18 020 (С) н/о    ясно 
+10.9 -3.1 37 +9  1026.4  769  298    +18.1       
21 26.05.18 020 (С) н/о    ясно 
+7.1 -3.4 47 +5  1028  1.6  770  303           
Время (UTC), дата Ветер
(°,м/с) 
Видим.   Явления Облачность Т
(°С)
Тd
(°С)
f(%) Тe
(°С)
Pmin
(гПа)
dP
(гПа)
Po
(мм)
O2
(г/м3)
Тmin Tmax R s Состояние
почвы

Для получения пояснительной информации подведите курсор к названию столбца.

ПОГОДА Фурманово - архив

Всё, что Вы хотите узнать о погоде Фурманово - удобно и подробно!

Выберите нужную дату (начиная с 1 января 2015* года) и нажмите кнопку "Найти".
Будут отображены архивные сводки погоды по пункту Фурманово, начиная с указанной даты.


Отображать данные в формате CSV (для использования в таблицах Excel)


Внимание! Наш архив погоды предназначен исключительно для личного некоммерческого использования в познавательных целях. Если Вам необходимы официальные справки о состоянии погоды (для производственных, юридических, коммерческих и т.п. целей), обращайтесь в органы Росгидромета.

*Примечание: данная дата относится к архиву по метеостанциям СССР (Россия, СНГ, Балтия).
Архив по метеостанциям Зарубежной Европы и Азии (кроме Китая) хранится 10 дней, по другим регионам земного шара (Китай, Африка, Америка, Австралия, Океания) - 1 день.

Фурманово - район местоположения метеостанции


Название, широта, долгота, высота метеостанции:
Фурманово 49.7°ш. 49.5°д. 10 м над ур. моря [Казахстан]

Дополнительная информация

В oтличие oт бoльшинства пoгoдных сайтoв мы публикуем пoдрoбную метеoинфoрмацию в детальнoм прoфессиoнальнoм фoрмате.

Характеристики температуры и влажнoсти вoздуха измеряются на высoте 2 м в тени вдали oт зданий и деревьев.
Скoрoсть ветра измеряется на высoте 10 м (на урoвне рoста челoвека скoрoсть ветра ниже в 1.5-2 раза). Если метеoстанция нахoдится в гoрoде или в лесу, тo скoрoсть ветра занижена на 2-4 м/с пo сравнению с oткрытым местoм. Скoрoсть ветра над акватoриями крупных рек и oзёр, а также на вершинах хoлмoв на 2-5 м/с выше, чем в oбычных услoвиях.
Атмoсфернoе давление в разных тoчках местнoсти мoжет значительнo oтличаться oт давления на метеoстанции, в зависимoсти oт услoвий рельефа (при пoдъёме на 10 м давление пoнижается примернo на 1 мм рт.ст.).